Time,TemperatureF,DewpointF,PressureIn,WindDirection,WindDirectionDegrees,WindSpeedMPH,WindSpeedGustMPH,Humidity,HourlyPrecipIn,Conditions,Clouds,dailyrainin,SolarRadiationWatts/m^2,SoftwareType,DateUTC
2013-01-08 00:11:00,37.0,28.0,-100.00,ENE,60,6.0,16.0,70,0.00,,,0.04,1.000000,,2013-01-08 07:11:00,
2013-01-08 00:32:00,37.0,27.0,-100.00,ENE,66,7.0,19.0,67,0.00,,,0.04,1.000000,,2013-01-08 07:32:00,
2013-01-08 00:42:00,37.0,27.0,-100.00,ENE,66,7.0,19.0,67,0.00,,,0.04,1.000000,,2013-01-08 07:42:00,
2013-01-08 00:52:00,37.0,27.0,-100.00,ENE,66,7.0,19.0,67,0.00,,,0.04,1.000000,,2013-01-08 07:52:00,
2013-01-08 01:02:00,37.0,27.0,-100.00,ENE,66,7.0,19.0,67,0.00,,,0.04,1.000000,,2013-01-08 08:02:00,
2013-01-08 01:11:00,37.0,27.0,-100.00,ENE,66,7.0,19.0,67,0.00,,,0.04,1.000000,,2013-01-08 08:11:00,
2013-01-08 01:42:00,35.0,27.0,-100.00,ENE,62,7.0,16.0,73,0.00,,,0.04,1.000000,,2013-01-08 08:42:00,
2013-01-08 01:53:00,35.0,27.0,-100.00,ENE,62,7.0,16.0,73,0.00,,,0.04,1.000000,,2013-01-08 08:53:00,
2013-01-08 02:02:00,35.0,27.0,-100.00,ENE,62,7.0,16.0,73,0.00,,,0.04,1.000000,,2013-01-08 09:02:00,
2013-01-08 02:12:00,35.0,27.0,-100.00,ENE,62,7.0,16.0,73,0.00,,,0.04,1.000000,,2013-01-08 09:12:00,
2013-01-08 02:33:00,36.0,25.0,-100.00,NE,53,5.0,14.0,64,0.00,,,0.04,1.000000,,2013-01-08 09:33:00,
2013-01-08 02:42:00,36.0,25.0,-100.00,NE,53,5.0,14.0,64,0.00,,,0.04,1.000000,,2013-01-08 09:42:00,
2013-01-08 02:52:00,36.0,25.0,-100.00,NE,53,5.0,14.0,64,0.00,,,0.04,1.000000,,2013-01-08 09:52:00,
2013-01-08 03:12:00,36.0,25.0,-100.00,NE,53,5.0,14.0,64,0.00,,,0.04,1.000000,,2013-01-08 10:12:00,
2013-01-08 03:33:00,36.0,25.0,-100.00,East,79,4.0,13.0,65,0.00,,,0.04,1.000000,,2013-01-08 10:33:00,
2013-01-08 03:42:00,36.0,25.0,-100.00,East,79,4.0,13.0,65,0.00,,,0.04,1.000000,,2013-01-08 10:42:00,
2013-01-08 03:52:00,36.0,25.0,-100.00,East,79,4.0,13.0,65,0.00,,,0.04,1.000000,,2013-01-08 10:52:00,
2013-01-08 04:02:00,36.0,25.0,-100.00,East,79,4.0,13.0,65,0.00,,,0.04,1.000000,,2013-01-08 11:02:00,
2013-01-08 04:11:00,36.0,25.0,-100.00,East,79,4.0,13.0,65,0.00,,,0.04,1.000000,,2013-01-08 11:11:00,
2013-01-08 04:33:00,36.0,25.0,-100.00,East,82,4.0,12.0,63,0.00,,,0.04,1.000000,,2013-01-08 11:33:00,
2013-01-08 04:42:00,36.0,25.0,-100.00,East,82,4.0,12.0,63,0.00,,,0.04,1.000000,,2013-01-08 11:42:00,
2013-01-08 04:53:00,36.0,25.0,-100.00,East,82,4.0,12.0,63,0.00,,,0.04,1.000000,,2013-01-08 11:53:00,
2013-01-08 05:02:00,36.0,25.0,-100.00,East,82,4.0,12.0,63,0.00,,,0.04,1.000000,,2013-01-08 12:02:00,
2013-01-08 05:11:00,36.0,25.0,-100.00,East,82,4.0,12.0,63,0.00,,,0.04,1.000000,,2013-01-08 12:11:00,
2013-01-08 05:33:00,35.0,24.0,-100.00,ENE,73,3.0,10.0,64,0.00,,,0.04,1.000000,,2013-01-08 12:33:00,
2013-01-08 05:43:00,35.0,24.0,-100.00,ENE,73,3.0,10.0,64,0.00,,,0.04,1.000000,,2013-01-08 12:43:00,
2013-01-08 05:53:00,35.0,24.0,-100.00,ENE,73,3.0,10.0,64,0.00,,,0.04,1.000000,,2013-01-08 12:53:00,
2013-01-08 06:12:00,35.0,24.0,-100.00,ENE,73,3.0,10.0,64,0.00,,,0.04,1.000000,,2013-01-08 13:12:00,
2013-01-08 06:33:00,34.0,26.0,-100.00,NE,44,5.0,13.0,72,0.00,,,0.04,1.000000,,2013-01-08 13:33:00,
2013-01-08 06:43:00,34.0,26.0,-100.00,NE,44,5.0,13.0,72,0.00,,,0.04,1.000000,,2013-01-08 13:43:00,
2013-01-08 06:53:00,34.0,26.0,-100.00,NE,44,5.0,13.0,72,0.00,,,0.04,1.000000,,2013-01-08 13:53:00,
2013-01-08 07:02:00,34.0,26.0,-100.00,NE,44,5.0,13.0,72,0.00,,,0.04,1.000000,,2013-01-08 14:02:00,
2013-01-08 07:12:00,34.0,26.0,-100.00,NE,44,5.0,13.0,72,0.00,,,0.04,1.000000,,2013-01-08 14:12:00,
2013-01-08 07:43:00,34.0,24.0,-100.00,East,85,3.0,11.0,66,0.00,,,0.04,1.000000,,2013-01-08 14:43:00,
2013-01-08 07:53:00,34.0,24.0,-100.00,East,85,3.0,11.0,66,0.00,,,0.04,1.000000,,2013-01-08 14:53:00,
2013-01-08 08:02:00,34.0,24.0,-100.00,East,85,3.0,11.0,66,0.00,,,0.04,1.000000,,2013-01-08 15:02:00,
2013-01-08 08:12:00,34.0,24.0,-100.00,East,85,3.0,11.0,66,0.00,,,0.04,1.000000,,2013-01-08 15:12:00,
2013-01-08 08:33:00,35.0,23.0,-100.00,ENE,67,4.0,12.0,62,0.00,,,0.04,1.000000,,2013-01-08 15:33:00,
2013-01-08 08:43:00,35.0,23.0,-100.00,ENE,67,4.0,12.0,62,0.00,,,0.04,1.000000,,2013-01-08 15:43:00,
2013-01-08 08:53:00,35.0,23.0,-100.00,ENE,67,4.0,12.0,62,0.00,,,0.04,1.000000,,2013-01-08 15:53:00,
2013-01-08 09:02:00,35.0,23.0,-100.00,ENE,67,4.0,12.0,62,0.00,,,0.04,1.000000,,2013-01-08 16:02:00,
2013-01-08 09:12:00,35.0,23.0,-100.00,ENE,67,4.0,12.0,62,0.00,,,0.04,1.000000,,2013-01-08 16:12:00,
2013-01-08 09:34:00,35.0,21.0,-100.00,NNW,339,4.0,14.0,57,0.00,,,0.04,1.000000,,2013-01-08 16:34:00,
2013-01-08 09:43:00,35.0,21.0,-100.00,NNW,339,4.0,14.0,57,0.00,,,0.04,1.000000,,2013-01-08 16:43:00,
2013-01-08 09:53:00,35.0,21.0,-100.00,NNW,339,4.0,14.0,57,0.00,,,0.04,1.000000,,2013-01-08 16:53:00,
2013-01-08 10:02:00,35.0,21.0,-100.00,NNW,339,4.0,14.0,57,0.00,,,0.04,1.000000,,2013-01-08 17:02:00,
2013-01-08 10:12:00,35.0,21.0,-100.00,NNW,339,4.0,14.0,57,0.00,,,0.04,1.000000,,2013-01-08 17:12:00,
2013-01-08 10:43:00,36.0,23.0,-100.00,NE,55,4.0,10.0,60,0.00,,,0.04,12.000000,,2013-01-08 17:43:00,
2013-01-08 10:53:00,36.0,23.0,-100.00,NE,55,4.0,10.0,60,0.00,,,0.04,12.000000,,2013-01-08 17:53:00,
2013-01-08 11:12:00,36.0,23.0,-100.00,NE,55,4.0,10.0,60,0.00,,,0.04,12.000000,,2013-01-08 18:12:00,
2013-01-08 11:33:00,37.0,20.0,-100.00,North,10,3.0,10.0,50,0.00,,,0.04,91.000000,,2013-01-08 18:33:00,
2013-01-08 11:43:00,37.0,20.0,-100.00,North,10,3.0,10.0,50,0.00,,,0.04,91.000000,,2013-01-08 18:43:00,
2013-01-08 11:53:00,37.0,20.0,-100.00,North,10,3.0,10.0,50,0.00,,,0.04,91.000000,,2013-01-08 18:53:00,
2013-01-08 12:02:00,37.0,20.0,-100.00,North,10,3.0,10.0,50,0.00,,,0.04,91.000000,,2013-01-08 19:02:00,
2013-01-08 12:12:00,37.0,20.0,-100.00,North,10,3.0,10.0,50,0.00,,,0.04,91.000000,,2013-01-08 19:12:00,
2013-01-08 12:43:00,39.0,21.0,-100.00,NW,325,4.0,9.0,49,0.00,,,0.04,116.000000,,2013-01-08 19:43:00,
2013-01-08 12:53:00,39.0,21.0,-100.00,NW,325,4.0,9.0,49,0.00,,,0.04,116.000000,,2013-01-08 19:53:00,
2013-01-08 13:02:00,39.0,21.0,-100.00,NW,325,4.0,9.0,49,0.00,,,0.04,116.000000,,2013-01-08 20:02:00,
2013-01-08 13:12:00,39.0,21.0,-100.00,NW,325,4.0,9.0,49,0.00,,,0.04,116.000000,,2013-01-08 20:12:00,
2013-01-08 13:33:00,40.0,21.0,-100.00,North,9,3.0,12.0,47,0.00,,,0.04,150.000000,,2013-01-08 20:33:00,
2013-01-08 13:43:00,40.0,21.0,-100.00,North,9,3.0,12.0,47,0.00,,,0.04,150.000000,,2013-01-08 20:43:00,
2013-01-08 13:53:00,40.0,21.0,-100.00,North,9,3.0,12.0,47,0.00,,,0.04,150.000000,,2013-01-08 20:53:00,
2013-01-08 14:02:00,40.0,21.0,-100.00,North,9,3.0,12.0,47,0.00,,,0.04,150.000000,,2013-01-08 21:02:00,
2013-01-08 14:12:00,40.0,21.0,-100.00,North,9,3.0,12.0,47,0.00,,,0.04,150.000000,,2013-01-08 21:12:00,
2013-01-08 14:43:00,39.0,21.0,-100.00,NE,54,4.0,11.0,49,0.00,,,0.04,117.000000,,2013-01-08 21:43:00,
2013-01-08 14:53:00,39.0,21.0,-100.00,NE,54,4.0,11.0,49,0.00,,,0.04,117.000000,,2013-01-08 21:53:00,
2013-01-08 15:02:00,39.0,21.0,-100.00,NE,54,4.0,11.0,49,0.00,,,0.04,117.000000,,2013-01-08 22:02:00,
2013-01-08 15:12:00,39.0,21.0,-100.00,NE,54,4.0,11.0,49,0.00,,,0.04,117.000000,,2013-01-08 22:12:00,
2013-01-08 15:33:00,40.0,23.0,-100.00,North,8,3.0,9.0,51,0.00,,,0.03,96.000000,,2013-01-08 22:33:00,
2013-01-08 15:43:00,40.0,23.0,-100.00,North,8,3.0,9.0,51,0.00,,,0.03,96.000000,,2013-01-08 22:43:00,
2013-01-08 15:53:00,40.0,23.0,-100.00,North,8,3.0,9.0,51,0.00,,,0.03,96.000000,,2013-01-08 22:53:00,
2013-01-08 16:02:00,40.0,23.0,-100.00,North,8,3.0,9.0,51,0.00,,,0.03,96.000000,,2013-01-08 23:02:00,
2013-01-08 16:12:00,40.0,23.0,-100.00,North,8,3.0,9.0,51,0.00,,,0.03,96.000000,,2013-01-08 23:12:00,
2013-01-08 16:33:00,39.0,27.0,-100.00,NE,36,4.0,12.0,62,0.00,,,0.01,86.000000,,2013-01-08 23:33:00,
2013-01-08 16:43:00,39.0,27.0,-100.00,NE,36,4.0,12.0,62,0.00,,,0.01,86.000000,,2013-01-08 23:43:00,
2013-01-08 16:53:00,39.0,27.0,-100.00,NE,36,4.0,12.0,62,0.00,,,0.01,86.000000,,2013-01-08 23:53:00,
2013-01-08 17:02:00,39.0,27.0,-100.00,NE,36,4.0,12.0,62,0.00,,,0.01,86.000000,,2013-01-09 00:02:00,
2013-01-08 17:12:00,39.0,27.0,-100.00,NE,36,4.0,12.0,62,0.00,,,0.01,86.000000,,2013-01-09 00:12:00,
2013-01-08 17:43:00,38.0,29.0,-100.00,NNE,15,5.0,13.0,70,0.00,,,0.01,35.000000,,2013-01-09 00:43:00,
2013-01-08 17:53:00,38.0,29.0,-100.00,NNE,15,5.0,13.0,70,0.00,,,0.01,35.000000,,2013-01-09 00:53:00,
2013-01-08 18:02:00,38.0,29.0,-100.00,NNE,15,5.0,13.0,70,0.00,,,0.01,35.000000,,2013-01-09 01:02:00,
2013-01-08 18:12:00,38.0,29.0,-100.00,NNE,15,5.0,13.0,70,0.00,,,0.01,35.000000,,2013-01-09 01:12:00,
2013-01-08 18:33:00,36.0,32.0,-100.00,ESE,105,3.0,11.0,84,0.00,,,0.00,7.000000,,2013-01-09 01:33:00,
2013-01-08 18:42:00,36.0,32.0,-100.00,ESE,105,3.0,11.0,84,0.00,,,0.00,7.000000,,2013-01-09 01:42:00,
2013-01-08 18:52:00,36.0,32.0,-100.00,ESE,105,3.0,11.0,84,0.00,,,0.00,7.000000,,2013-01-09 01:52:00,
2013-01-08 19:02:00,36.0,32.0,-100.00,ESE,105,3.0,11.0,84,0.00,,,0.00,7.000000,,2013-01-09 02:02:00,
2013-01-08 19:12:00,36.0,32.0,-100.00,ESE,105,3.0,11.0,84,0.00,,,0.00,7.000000,,2013-01-09 02:12:00,
2013-01-08 19:33:00,35.0,32.0,-100.00,East,91,7.0,14.0,90,0.00,,,0.00,1.000000,,2013-01-09 02:33:00,
2013-01-08 19:43:00,35.0,32.0,-100.00,East,91,7.0,14.0,90,0.00,,,0.00,1.000000,,2013-01-09 02:43:00,
2013-01-08 19:53:00,35.0,32.0,-100.00,East,91,7.0,14.0,90,0.00,,,0.00,1.000000,,2013-01-09 02:53:00,
2013-01-08 20:02:00,35.0,32.0,-100.00,East,91,7.0,14.0,90,0.00,,,0.00,1.000000,,2013-01-09 03:02:00,
2013-01-08 20:11:00,35.0,32.0,-100.00,East,91,7.0,14.0,90,0.00,,,0.00,1.000000,,2013-01-09 03:11:00,
2013-01-08 20:33:00,36.0,33.0,-100.00,ENE,62,6.0,16.0,89,0.00,,,0.00,1.000000,,2013-01-09 03:33:00,
2013-01-08 20:43:00,36.0,33.0,-100.00,ENE,62,6.0,16.0,89,0.00,,,0.00,1.000000,,2013-01-09 03:43:00,
2013-01-08 20:52:00,36.0,33.0,-100.00,ENE,62,6.0,16.0,89,0.00,,,0.00,1.000000,,2013-01-09 03:52:00,
2013-01-08 21:02:00,36.0,33.0,-100.00,ENE,62,6.0,16.0,89,0.00,,,0.00,1.000000,,2013-01-09 04:02:00,
2013-01-08 21:11:00,36.0,33.0,-100.00,ENE,62,6.0,16.0,89,0.00,,,0.00,1.000000,,2013-01-09 04:11:00,
2013-01-08 21:33:00,38.0,32.0,-100.00,NNE,24,6.0,14.0,79,0.00,,,0.00,1.000000,,2013-01-09 04:33:00,
2013-01-08 21:43:00,38.0,32.0,-100.00,NNE,24,6.0,14.0,79,0.00,,,0.00,1.000000,,2013-01-09 04:43:00,
2013-01-08 21:52:00,38.0,32.0,-100.00,NNE,24,6.0,14.0,79,0.00,,,0.00,1.000000,,2013-01-09 04:52:00,
2013-01-08 22:03:00,38.0,32.0,-100.00,NNE,24,6.0,14.0,79,0.00,,,0.00,1.000000,,2013-01-09 05:03:00,
2013-01-08 22:12:00,38.0,32.0,-100.00,NNE,24,6.0,14.0,79,0.00,,,0.00,1.000000,,2013-01-09 05:12:00,
2013-01-08 22:33:00,39.0,33.0,-100.00,East,96,3.0,15.0,79,0.00,,,0.00,1.000000,,2013-01-09 05:33:00,
2013-01-08 22:43:00,39.0,33.0,-100.00,East,96,3.0,15.0,79,0.00,,,0.00,1.000000,,2013-01-09 05:43:00,
2013-01-08 22:52:00,39.0,33.0,-100.00,East,96,3.0,15.0,79,0.00,,,0.00,1.000000,,2013-01-09 05:52:00,
2013-01-08 23:02:00,39.0,33.0,-100.00,East,96,3.0,15.0,79,0.00,,,0.00,1.000000,,2013-01-09 06:02:00,
2013-01-08 23:11:00,39.0,33.0,-100.00,East,96,3.0,15.0,79,0.00,,,0.00,1.000000,,2013-01-09 06:11:00,
2013-01-08 23:32:00,37.0,33.0,-100.00,NNE,32,3.0,7.0,84,0.00,,,0.00,1.000000,,2013-01-09 06:32:00,
2013-01-08 23:42:00,37.0,33.0,-100.00,NNE,32,3.0,7.0,84,0.00,,,0.00,1.000000,,2013-01-09 06:42:00,
2013-01-08 23:52:00,37.0,33.0,-100.00,NNE,32,3.0,7.0,84,0.00,,,0.00,1.000000,,2013-01-09 06:52:00,